OPS 7869 (DMSP 4B F1)

导读

OPS 7869(又名DMSP 4B F1)是美国国防气象卫星计划(DMSP)旗下的第二代极轨气象卫星,于1968年5月23日发射升空。该卫星运行于太阳同步轨道,核心任务为全球云图监测、气象参数观测与海洋环境探测,为美军行动提供气象情报支撑,同时也为后续DMSP系列卫星的发展积累了关键技术经验,现已退役。

Basic Information
目录编号:
3266
目录名称:
OPS 7869 (DMSP 4B F1)
国际标识:
1968-042A
轨道中心:
EARTH
卫星名称:
OPS 7869 (DMSP 4B F1)
卫星全名:
--
卫星状态:
在轨 (已飞行21236 天)
发射日期:
1968-05-23 UTC
国别 :
美国 (US)
星等 :
--
Orbit Information
数据来源 国际轨道数据
星历时间: 2026-07-14T10:33:57+0800
6小时前
查看轨道信息
半长轴: 7217.388km
偏心率: 0.0051655
轨道倾角: 98.558°
近地点辐角 224.264°
升交点赤经 24.890°
平近点角 135.439°
近地点: 801.969km
远地点: 876.533km
周期: 101.702分钟
每日圈数: 14.159006
Detailed Information
使用方式:
暂无
2D Orbit Map
3D Orbit Map
Orbit Altitude Analysis Chart
Orbit Inclination Analysis Chart
Orbit Comprehensive Analysis Chart
View Comprehensive Chart